Location: Lancaster
(34.6980°N, 118.1360°W)
Time: 06:08:33
(UTC-08:00)

Vanguard 2 - Visible Passes

Search period start: 21 November 2017 00:00
Search period end: 01 December 2017 00:00
Orbit: 553 x 2940 km, 32.9° (Epoch: 21 November)

Date Brightness Start Highest point End Pass type
(mag) Time Alt. Az. Time Alt. Az. Time Alt. Az.
21 Nov 10.9 01:32:38 32° ESE 01:32:38 32° ESE 01:40:00 10° ESE visible
21 Nov 9.9 03:34:04 55° SW 03:35:55 58° SSW 03:52:51 10° SE visible
21 Nov 11.1 05:35:30 11° W 05:47:31 30° SW 06:01:35 10° SSE visible
22 Nov 10.7 01:49:51 37° ESE 01:49:51 37° ESE 01:58:26 10° ESE visible
22 Nov 10.1 03:51:17 45° SW 03:54:09 49° SSW 04:10:30 10° SE visible
22 Nov 11.2 05:54:50 10° W 06:05:34 22° SW 06:17:33 10° S visible
23 Nov 10.5 02:07:05 40° SE 02:07:05 40° SE 02:16:42 10° ESE visible
23 Nov 10.3 04:08:31 35° WSW 04:12:21 40° SSW 04:27:49 10° SSE visible
24 Nov 10.4 02:24:20 42° SE 02:24:20 42° SE 02:34:46 10° SE visible
24 Nov 10.5 04:25:47 27° WSW 04:30:32 32° SSW 04:44:42 10° SSE visible
25 Nov 10.4 02:41:36 41° SSE 02:41:36 41° SSE 02:52:35 10° SE visible
25 Nov 10.8 04:43:03 19° WSW 04:48:43 24° SW 05:01:00 10° S visible
26 Nov 11.6 00:57:26 12° ESE 00:57:26 12° ESE 00:58:23 10° ESE visible
26 Nov 10.4 02:58:52 37° S 02:58:52 37° S 03:10:04 10° SE visible
26 Nov 11.1 05:00:19 12° WSW 05:06:54 17° SW 05:16:21 10° S visible
27 Nov 11.5 01:14:41 15° ESE 01:14:41 15° ESE 01:16:33 10° ESE visible
27 Nov 10.6 03:16:08 31° SSW 03:16:08 31° SSW 03:27:10 10° SSE visible
27 Nov 11.3 05:21:33 10° SW 05:25:11 11° SW 05:29:02 10° SSW visible
27 Nov 9.3 18:52:39 10° SSW 18:53:28 13° S 18:53:28 13° S visible
28 Nov 11.4 01:31:56 16° SE 01:31:56 16° SE 01:34:29 10° SE visible
28 Nov 10.8 03:33:23 25° SSW 03:33:23 25° SSW 03:43:43 10° SSE visible
28 Nov 9.4 19:09:50 10° SSW 19:10:43 15° SSW 19:10:43 15° SSW visible
29 Nov 11.3 01:49:10 17° SE 01:49:10 17° SE 01:52:07 10° SE visible
29 Nov 11.0 03:50:37 18° SSW 03:50:37 18° SSW 03:59:26 10° S visible
29 Nov 9.7 19:27:25 10° SW 19:27:57 13° SW 19:27:57 13° SW visible
30 Nov 11.3 02:06:23 16° SSE 02:06:23 16° SSE 02:09:22 10° SSE visible
30 Nov 11.2 04:07:49 12° SW 04:08:52 12° SSW 04:13:06 10° SSW visible
30 Nov 9.1 17:39:44 10° S 17:41:34 13° SSE 17:43:23 10° ESE visible
